Tehachapi, CA

4:54 PM PST on February 19, 2017 (GMT -0800)
Tehachapi Municipal

Weather History for KTSP - September, 2013

Change the Weather History Date:

Wednesday, September 25, 2013

  Actual Average Record
Temperature  
Mean Temperature 53 °F -  
Max Temperature 60 °F 77 °F 89 °F (2015)
Min Temperature 46 °F 48 °F 44 °F (2012)
Degree Days  
Heating Degree Days 12    
Growing Degree Days 3 (Base 50)    
Moisture  
Dew Point 39 °F    
Average Humidity 61    
Maximum Humidity 87    
Minimum Humidity 44    
Precipitation  
Precipitation 0.00 in - - ()
Sea Level Pressure  
Sea Level Pressure 29.86 in    
Wind  
Wind Speed 18 mph (WNW)    
Max Wind Speed 26 mph    
Max Gust Speed 36 mph    
Visibility 9 miles    
Events      
Averages and records for this station are not official NWS values.
T = Trace of Precipitation, MM = Missing Value Source: NWS Daily Summary

Daily Weather History Graph

Daily Weather History Graph

Search for Another Location

Airport or City:

Trip Planner

Search our weather history database for the weather conditions in past years. The results will help you decide how hot, cold, wet, or windy it might be!

Date:

Astronomy

Sep. 25, 2013 Rise Set
Actual Time 6:44 AM PDT 6:45 PM PDT
Civil Twilight 6:18 AM PDT 7:11 PM PDT
Nautical Twilight 5:49 AM PDT 7:40 PM PDT
Astronomical Twilight 5:19 AM PDT 8:10 PM PDT
Moon 11:07 PM PDT (9/25) 12:42 PM PDT (9/25)
Length of Visible Light 12h 52m
Length of Day
12h 01m
Waning Gibbous, 63% of the Moon is Illuminated
Sep 25
Waning Gibbous
Sep 26
Last Quarter
Oct 4
New
Oct 11
First Quarter
Oct 18
Full

Hourly Weather History & Observations

Time (PDT) Temp. Windchill Dew Point Humidity Pressure Visibility Wind Dir Wind Speed Gust Speed Precip Events Conditions
12:35 AM 59.0 °F - 41.0 °F 51% 29.95 in 10.0 mi West 13.8 mph - N/A   Clear
12:55 AM 60.8 °F - 41.0 °F 48% 29.94 in 10.0 mi West 10.4 mph - N/A   Clear
1:15 AM 59.0 °F - 42.8 °F 55% 29.94 in 10.0 mi West 16.1 mph - N/A   Clear
1:35 AM 57.2 °F - 42.8 °F 59% 29.94 in 10.0 mi West 16.1 mph - N/A   Clear
1:55 AM 57.2 °F - 42.8 °F 59% 29.93 in 10.0 mi West 19.6 mph - N/A   Clear
2:35 AM 53.6 °F - 44.6 °F 72% 29.93 in 10.0 mi West 19.6 mph 28.8 mph N/A   Clear
2:55 AM 50.0 °F - 44.6 °F 82% 29.93 in 10.0 mi NW 17.3 mph 23.0 mph N/A   Clear
3:15 AM 51.8 °F - 44.6 °F 76% 29.92 in 10.0 mi NW 19.6 mph 26.5 mph N/A   Clear
3:35 AM 51.8 °F - 44.6 °F 76% 29.92 in 10.0 mi West 10.4 mph - N/A   Clear
3:55 AM 50.0 °F - 44.6 °F 82% 29.91 in 10.0 mi West 13.8 mph - N/A   Clear
4:15 AM 50.0 °F - 44.6 °F 82% 29.91 in 9.0 mi West 15.0 mph - N/A   Scattered Clouds
4:35 AM 48.2 °F - 44.6 °F 87% 29.92 in 8.0 mi NW 17.3 mph - N/A   Mostly Cloudy
4:55 AM 48.2 °F - 44.6 °F 87% 29.92 in 8.0 mi WNW 16.1 mph - N/A   Overcast
5:15 AM 48.2 °F - 44.6 °F 87% 29.92 in 8.0 mi WNW 15.0 mph 25.3 mph N/A   Overcast
5:35 AM 48.2 °F - 44.6 °F 87% 29.92 in 8.0 mi West 17.3 mph 24.2 mph N/A   Overcast
5:55 AM 48.2 °F - 44.6 °F 87% 29.91 in 8.0 mi West 18.4 mph 21.9 mph N/A   Overcast
6:15 AM 48.2 °F - 42.8 °F 82% 29.91 in 8.0 mi WNW 17.3 mph 20.7 mph N/A   Mostly Cloudy
6:35 AM 46.4 °F 39.2 °F 42.8 °F 87% 29.91 in 8.0 mi West 18.4 mph 23.0 mph N/A   Overcast
6:55 AM 46.4 °F 40.1 °F 41.0 °F 81% 29.91 in 7.0 mi WNW 15.0 mph 20.7 mph N/A   Mostly Cloudy
7:15 AM 46.4 °F 40.4 °F 41.0 °F 81% 29.91 in 7.0 mi WNW 13.8 mph - N/A   Clear
7:35 AM 46.4 °F 40.1 °F 41.0 °F 81% 29.91 in 8.0 mi WNW 15.0 mph 20.7 mph N/A   Clear
7:55 AM 48.2 °F - 41.0 °F 76% 29.91 in 9.0 mi WNW 13.8 mph 20.7 mph N/A   Clear
8:15 AM 50.0 °F - 41.0 °F 71% 29.91 in 9.0 mi WNW 16.1 mph 21.9 mph N/A   Clear
8:35 AM 50.0 °F - 41.0 °F 71% 29.91 in 9.0 mi WNW 18.4 mph - N/A   Clear
8:55 AM 51.8 °F - 41.0 °F 67% 29.91 in 8.0 mi WNW 16.1 mph - N/A   Clear
9:15 AM 51.8 °F - 41.0 °F 67% 29.91 in 9.0 mi WNW 15.0 mph 23.0 mph N/A   Clear
9:35 AM 51.8 °F - 41.0 °F 67% 29.91 in 9.0 mi WNW 15.0 mph 23.0 mph N/A   Clear
9:55 AM 53.6 °F - 41.0 °F 62% 29.91 in 9.0 mi WNW 13.8 mph 24.2 mph N/A   Partly Cloudy
10:15 AM 53.6 °F - 41.0 °F 62% 29.91 in 8.0 mi WNW 18.4 mph 25.3 mph N/A   Partly Cloudy
10:35 AM 53.6 °F - 41.0 °F 62% 29.91 in 9.0 mi NW 19.6 mph 23.0 mph N/A   Partly Cloudy
11:15 AM 53.6 °F - 39.2 °F 58% 29.91 in 6.0 mi NW 24.2 mph 28.8 mph N/A   Haze
11:55 AM 53.6 °F - 39.2 °F 58% 29.89 in 10.0 mi NNW 26.5 mph 31.1 mph N/A   Scattered Clouds
12:15 PM 55.4 °F - 37.4 °F 51% 29.89 in 9.0 mi NW 25.3 mph 32.2 mph N/A   Partly Cloudy
12:35 PM 55.4 °F - 37.4 °F 51% 29.88 in 10.0 mi NW 23.0 mph 31.1 mph N/A   Partly Cloudy
12:55 PM 55.4 °F - 37.4 °F 51% 29.88 in 9.0 mi NW 21.9 mph 32.2 mph N/A   Clear
1:15 PM 57.2 °F - 37.4 °F 48% 29.87 in 8.0 mi NW 24.2 mph 31.1 mph N/A   Clear
1:35 PM 57.2 °F - 35.6 °F 44% 29.87 in 9.0 mi NW 21.9 mph 29.9 mph N/A   Clear
1:55 PM 57.2 °F - 37.4 °F 48% 29.86 in 8.0 mi NW 26.5 mph 31.1 mph N/A   Clear
2:15 PM 57.2 °F - 37.4 °F 48% 29.85 in 9.0 mi NW 26.5 mph 34.5 mph N/A   Clear
2:35 PM 57.2 °F - 37.4 °F 48% 29.85 in 10.0 mi NW 26.5 mph 32.2 mph N/A   Clear
2:55 PM 57.2 °F - 37.4 °F 48% 29.84 in 9.0 mi NW 23.0 mph 35.7 mph N/A   Clear
3:15 PM 57.2 °F - 37.4 °F 48% 29.84 in 10.0 mi NW 20.7 mph 31.1 mph N/A   Clear
3:35 PM 57.2 °F - 35.6 °F 44% 29.83 in 9.0 mi NW 23.0 mph 29.9 mph N/A   Clear
3:55 PM 57.2 °F - 35.6 °F 44% 29.82 in 9.0 mi NW 20.7 mph 32.2 mph N/A   Clear
4:15 PM 57.2 °F - 37.4 °F 48% 29.82 in 9.0 mi NW 24.2 mph 32.2 mph N/A   Clear
4:35 PM 57.2 °F - 35.6 °F 44% 29.81 in 9.0 mi NW 23.0 mph 31.1 mph N/A   Clear
4:55 PM 55.4 °F - 35.6 °F 47% 29.81 in 10.0 mi NW 24.2 mph 31.1 mph N/A   Clear
5:15 PM 55.4 °F - 35.6 °F 47% 29.81 in 10.0 mi WNW 20.7 mph 28.8 mph N/A   Clear
5:35 PM 55.4 °F - 35.6 °F 47% 29.80 in 10.0 mi NW 20.7 mph 27.6 mph N/A   Scattered Clouds
5:55 PM 53.6 °F - 37.4 °F 54% 29.79 in 10.0 mi NW 23.0 mph 28.8 mph N/A   Scattered Clouds
6:15 PM 53.6 °F - 37.4 °F 54% 29.79 in 10.0 mi WNW 18.4 mph 26.5 mph N/A   Scattered Clouds
6:35 PM 51.8 °F - 35.6 °F 54% 29.79 in 9.0 mi WNW 21.9 mph 29.9 mph N/A   Partly Cloudy
6:55 PM 51.8 °F - 37.4 °F 58% 29.79 in 10.0 mi WNW 19.6 mph 27.6 mph N/A   Clear
7:15 PM 50.0 °F - 35.6 °F 58% 29.78 in 10.0 mi WNW 20.7 mph 26.5 mph N/A   Clear
7:35 PM 50.0 °F - 35.6 °F 58% 29.79 in 10.0 mi WNW 18.4 mph 24.2 mph N/A   Clear
7:55 PM 50.0 °F - 35.6 °F 58% 29.79 in 10.0 mi WNW 21.9 mph 28.8 mph N/A   Clear
8:15 PM 50.0 °F - 35.6 °F 58% 29.79 in 10.0 mi WNW 23.0 mph 32.2 mph N/A   Partly Cloudy
8:35 PM 50.0 °F - 35.6 °F 58% 29.79 in 10.0 mi WNW 20.7 mph 27.6 mph N/A   Partly Cloudy
8:55 PM 50.0 °F - 35.6 °F 58% 29.79 in 10.0 mi WNW 23.0 mph 28.8 mph N/A   Scattered Clouds
9:15 PM 50.0 °F - 33.8 °F 54% 29.79 in 10.0 mi WNW 23.0 mph 32.2 mph N/A   Overcast
9:35 PM 50.0 °F - 32.0 °F 50% 29.80 in 10.0 mi WNW 21.9 mph 28.8 mph N/A   Overcast
9:55 PM 50.0 °F - 32.0 °F 50% 29.80 in 10.0 mi WNW 21.9 mph 28.8 mph N/A   Overcast
10:15 PM 50.0 °F - 35.6 °F 58% 29.80 in 10.0 mi NW 24.2 mph 31.1 mph N/A   Overcast
10:35 PM 50.0 °F - 35.6 °F 58% 29.80 in 10.0 mi WNW 20.7 mph 29.9 mph N/A   Overcast
10:55 PM 50.0 °F - 35.6 °F 58% 29.80 in 10.0 mi WNW 23.0 mph 31.1 mph N/A   Overcast
11:15 PM 50.0 °F - 33.8 °F 54% 29.79 in 10.0 mi WNW 24.2 mph 32.2 mph N/A   Overcast
11:35 PM 50.0 °F - 32.0 °F 50% 29.79 in 10.0 mi WNW 21.9 mph 28.8 mph N/A   Overcast
11:55 PM 48.2 °F - 32.0 °F 54% 29.79 in 10.0 mi WNW 19.6 mph 26.5 mph N/A   Overcast